Location: Wolf Lake
(46.8518°N, 80.6381°W)
Time: 21:44:39
(UTC-04:00)

ISS - Pass Details

Date: 28 May 2022
Orbit: 414 x 420 km, 51.6° (Epoch: 29 June)

Event Time Altitude Azimuth Distance (km) Brightness Sun altitude
Rises 22:35:02 0° 293° (WNW) 2,370 1.3 -12.1°
Reaches altitude 10° 22:37:13 10° 286° (WNW) 1,501 -0.1 -12.3°
Maximum altitude 22:40:23 40° 216° (SW) 632 -3.0 -12.7°
Enters shadow 22:42:03 23° 159° (SSE) 947 -2.6 -12.8°
